Location: Barrio de Canyet
(41.4665°N, 2.2381°E)
Time: 20:51:59
(UTC+00:00)

STARLINK-1105 - Pass Details

Date: 09 April 2020
Orbit: 375 x 384 km, 53.0° (Epoch: 31 May)

Event Time Altitude Azimuth Distance (km) Brightness Sun altitude
Rises 19:49:29 0° 313° (NW) 2,204 8.2 -15.7°
Reaches altitude 10° 19:51:37 10° 323° (NW) 1,352 6.6 -16.1°
Maximum altitude 19:54:25 34° 31° (NNE) 617 3.8 -16.5°
Enters shadow 19:54:54 32° 53° (NE) 650 3.7 -16.6°
